This is the latest recevied weather packets stored in our database for station/object W8BS. If no packets are shown the sender has not sent any weather packets the latest 10 day(s).
| Time | Temp. | Humidity | Pressure | Rain* | Wind** | Luminosity | Snow |
|---|---|---|---|---|---|---|---|
| 1777810682 | 1.67° C | 94% | 1017.4 hPa | 0 mm | - | 52 W/m² | - |
| 1777810379 | 2.22° C | 94% | 1017.4 hPa | 0 mm | - | 60 W/m² | - |
| 1777810074 | 1.67° C | 97% | 1017.4 hPa | 0 mm | - | 61 W/m² | - |
| 1777809773 | 1.11° C | 97% | 1017.3 hPa | 0 mm | - | 82 W/m² | - |
| 1777809470 | 1.11° C | 98% | 1017.4 hPa | 0 mm | - | 97 W/m² | - |
| 1777809168 | 1.11° C | 99% | 1017.2 hPa | 0 mm | - | 108 W/m² | - |
| 1777808865 | 1.11° C | 99% | 1017.1 hPa | 0 mm | - | 71 W/m² | - |
| 1777808562 | 0.56° C | 99% | 1017 hPa | 0 mm | - | 85 W/m² | - |
| 1777808258 | 0.56° C | 99% | 1016.9 hPa | 0 mm | - | 49 W/m² | - |
| 1777807958 | 0.56° C | 99% | 1016.9 hPa | 0 mm | - | 64 W/m² | - |
| 1777807654 | 0° C | 99% | 1016.8 hPa | 0 mm | - | 62 W/m² | - |
| 1777807352 | 0° C | 99% | 1016.8 hPa | 0 mm | - | 62 W/m² | - |
| 1777807048 | -0.56° C | 99% | 1016.6 hPa | 0 mm | - | 45 W/m² | - |
| 1777806745 | -0.56° C | 99% | 1016.4 hPa | 0 mm | - | 30 W/m² | - |
| 1777806441 | -0.56° C | 99% | 1016.5 hPa | 0 mm | - | 22 W/m² | - |
| 1777806138 | -0.56° C | 99% | 1016.8 hPa | 0 mm | - | 26 W/m² | - |
| 1777805834 | -0.56° C | 99% | 1016.4 hPa | 0 mm | - | 21 W/m² | - |
| 1777805532 | -0.56° C | 99% | 1016.6 hPa | 0 mm | - | 17 W/m² | - |
| 1777805229 | -0.56° C | 99% | 1016.4 hPa | 0 mm | - | 13 W/m² | - |
| 1777804927 | -1.11° C | 99% | 1016.1 hPa | 0 mm | - | 12 W/m² | - |
| 1777804624 | -1.11° C | 99% | 1016.2 hPa | 0 mm | - | 9 W/m² | - |
| 1777804323 | -1.11° C | 99% | 1016 hPa | 0 mm | - | 5 W/m² | - |
| 1777804019 | -1.11° C | 99% | 1015.9 hPa | 0 mm | - | 3 W/m² | - |
| 1777803715 | -1.11° C | 99% | 1015.9 hPa | 0 mm | - | 1 W/m² | - |
| 1777803411 | -0.56° C | 99% | 1015.9 hPa | 0 mm | - | 0 W/m² | - |
* Rain latest hour (hover to see other rain measurements)
** Current wind speed in m/s (hover to see current wind gust speed)